Regional Weather Roundup
Issued by NWS Little Rock, AR

Home | Current Version | Previous Version | Text Only | Print | Product List | Glossary Off
Versions: 1 2 3 4 5 6 7 8 9 10 11 12 13 14 15 16 17 18 19 20 21 22 23 24 25 26 27 28 29 30 31 32 33 34 35 36 37 38 39 40 41 42 43 44 45 46 47 48 49 50

000
ASUS44 KLZK 232005
RWRLZK

WEATHER ROUNDUP FOR ARKANSAS
NATIONAL WEATHER SERVICE LITTLE ROCK AR
300 PM CDT THU MAR 23 2017

NOTE: "FAIR" INDICATES FEW OR NO CLOUDS BELOW 12,000 FEET WITH NO
SIGNIFICANT WEATHER AND/OR OBSTRUCTIONS TO VISIBILITY.

ARZ001-003-010-029-232100-
NORTHWEST ARKANSAS

CITY           SKY/WX    TMP DP  RH WIND       PRES   REMARKS
FAYETTEVILLE   SUNNY     74  47  38 S20G25    30.02F
FORT SMITH     SUNNY     79  49  34 E12       30.01F
HARRISON       SUNNY     75  52  44 S21G26    30.07F
BENTONVILLE    SUNNY     75  45  33 SW17G24   30.03F
ROGERS         SUNNY     76  46  34 S23G31    30.02F
SILOAM SPGS    SUNNY     73  46  38 S20G26    30.01F
HIGHFILL       SUNNY     75  48  38 S20G26    30.01F
SPRINGDALE     SUNNY     75  46  35 S14G23    30.04F
$$

ARZ004-005-016-232100-
NORTH CENTRAL ARKANSAS

CITY           SKY/WX    TMP DP  RH WIND       PRES   REMARKS
BATESVILLE     MOSUNNY   73  48  40 E10       30.13F
FLIPPIN        SUNNY     75  52  43 S13G20    30.05F
MTN HOME       SUNNY     76  52  43 S12       30.07F
$$

ARZ040-041-232100-
WEST CENTRAL ARKANSAS

CITY           SKY/WX    TMP DP  RH WIND       PRES   REMARKS
MENA           SUNNY     79  52  38 CALM      30.06F
MOUNT IDA      SUNNY     78  49  35 SE12G22   30.05F
$$

ARZ009-017-025-026-028-232100-
NORTHEAST ARKANSAS

CITY           SKY/WX    TMP DP  RH WIND       PRES   REMARKS
CORNING        FAIR      68  46  45 E7        30.17F
JONESBORO      SUNNY     71  47  42 SE7       30.16F
NEWPORT        SUNNY     71  49  45 S12       30.15F
WALNUT RIDGE   SUNNY     70  46  43 S8        30.15F
BLYTHEVILLE    SUNNY     71  47  42 SE7       30.18F
$$

ARZ022-023-033-042-044-232100-
CENTRAL ARKANSAS

CITY           SKY/WX    TMP DP  RH WIND       PRES   REMARKS
LITTLE ROCK    MOSUNNY   79  57  46 E12       30.09F
N LITTLE ROCK    N/A     77  56  48 SE9       30.11F
JACKSONVILLE   SUNNY     78  57  47 SE14      30.10F
CONWAY           N/A     79  55  44 SE9G16    30.08F
SEARCY         SUNNY     77  55  46 S7        30.13F
HOT SPRINGS    SUNNY     80  52  37 S10       30.09F
RUSSELLVILLE   SUNNY     76  52  43 E8        30.06F
CLINTON        FAIR      75  54  46 SE8       30.10F
$$

ARZ036-232100-
EAST ARKANSAS

CITY           SKY/WX    TMP DP  RH WIND       PRES   REMARKS
WEST MEMPHIS   SUNNY     77  51  40 S10       30.14F
$$

ARZ050-053-066-070-073-232100-
SOUTHWEST ARKANSAS

CITY           SKY/WX    TMP DP  RH WIND       PRES   REMARKS
ARKADELPHIA    FAIR      82  52  35 S13G21    30.08F
CAMDEN         SUNNY     86  46  25 S12       30.08F
TEXARKANA      SUNNY     82  54  37 S17G23    30.06F
EL DORADO      SUNNY     83  47  28 S13G23    30.10F
DE QUEEN       SUNNY     80  57  45 SE12G20   30.02F
$$

ARZ056-057-069-232100-
SOUTHEAST ARKANSAS

CITY           SKY/WX    TMP DP  RH WIND       PRES   REMARKS
PINE BLUFF     SUNNY     82  57  42 S13       30.10F
STUTTGART      SUNNY     81  52  36 SE14      30.13F
MONTICELLO     SUNNY     82  56  40 S12G17    30.11F

$$





USA.gov is the U.S. government's official web portal to all federal, state and local government web resources and services.